Total_Precipitation_Accumulation
0.00 0.00 0.01 0.02 0.03 0.05 0.04 0.06 0.03 0.00 0.00 0.04 0.00 0.01 0.00 0.00 0.00 0.00 0.00 0.00 0.00 0.00 0.02 0.08 0.19 0.30 0.40 0.52 0.54 0.21 0.14 0.02 0.01 0.01 0.01 0.00 0.00 0.00 0.00 0.00 0.00 0.00 0.00 0.00
0.00 0.00 0.00 0.00 0.00 0.01 0.01 0.00 0.00 0.00 0.00 0.12 0.04 0.01 0.00 0.00 0.00 0.00 0.00 0.00 0.00 0.00 0.01 0.03 0.12 0.23 0.32 0.48 0.56 0.37 0.21 0.05 0.07 0.09 0.12 0.07 0.00 0.00 0.00 0.00 0.00 0.00 0.00 0.00
0.00 0.00 0.00 0.00 0.00 0.00 0.00 0.01 0.02 0.02 0.00 0.03 0.04 0.02 0.00 0.00 0.06 0.02 0.00 0.00 0.00 0.00 0.01 0.03 0.07 0.17 0.24 0.37 0.52 0.46 0.29 0.12 0.12 0.14 0.13 0.12 0.01 0.00 0.00 0.00 0.00 0.00 0.00 0.00
0.00 0.00 0.00 0.00 0.00 0.00 0.00 0.00 0.00 0.00 0.01 0.04 0.18 0.15 0.00 0.01 0.08 0.06 0.00 0.00 0.00 0.00 0.02 0.03 0.05 0.11 0.19 0.28 0.39 0.53 0.53 0.32 0.16 0.26 0.13 0.09 0.03 0.00 0.00 0.00 0.00 0.00 0.00 0.00
0.01 0.00 0.00 0.00 0.00 0.00 0.00 0.00 0.00 0.00 0.02 0.05 0.06 0.18 0.07 0.03 0.10 0.12 0.07 0.01 0.00 0.01 0.03 0.04 0.04 0.07 0.11 0.25 0.30 0.45 0.74 0.70 0.23 0.23 0.25 0.21 0.12 0.01 0.00 0.00 0.00 0.00 0.00 0.00
0.01 0.00 0.00 0.00 0.00 0.00 0.00 0.00 0.00 0.00 0.02 0.04 0.02 0.15 0.25 0.21 0.26 0.19 0.13 0.04 0.01 0.02 0.03 0.05 0.04 0.04 0.08 0.14 0.31 0.39 0.65 1.05 0.62 0.26 0.21 0.23 0.26 0.05 0.00 0.00 0.00 0.00 0.00 0.00
0.00 0.00 0.00 0.00 0.00 0.00 0.00 0.00 0.00 0.00 0.02 0.01 0.02 0.18 0.43 0.31 0.20 0.21 0.17 0.10 0.03 0.02 0.02 0.04 0.05 0.04 0.08 0.09 0.26 0.37 0.47 0.68 0.96 0.53 0.21 0.17 0.26 0.18 0.02 0.00 0.00 0.00 0.00 0.00
0.00 0.00 0.00 0.00 0.00 0.00 0.00 0.01 0.02 0.01 0.01 0.00 0.14 0.34 0.26 0.30 0.18 0.17 0.19 0.14 0.05 0.03 0.02 0.02 0.05 0.05 0.05 0.08 0.16 0.39 0.40 0.50 0.91 1.02 0.62 0.22 0.19 0.19 0.07 0.00 0.00 0.00 0.00 0.00
0.01 0.01 0.00 0.00 0.00 0.00 0.00 0.00 0.01 0.02 0.01 0.05 0.18 0.21 0.16 0.14 0.13 0.15 0.17 0.12 0.08 0.05 0.05 0.04 0.05 0.08 0.06 0.08 0.10 0.28 0.57 0.45 0.76 1.21 0.96 0.75 0.43 0.20 0.11 0.03 0.00 0.00 0.00 0.00
0.00 0.04 0.00 0.00 0.00 0.00 0.00 0.00 0.01 0.02 0.03 0.10 0.12 0.09 0.10 0.13 0.13 0.14 0.15 0.15 0.12 0.05 0.05 0.05 0.06 0.08 0.10 0.09 0.11 0.14 0.40 0.58 0.46 0.56 0.89 1.06 1.36 0.66 0.22 0.09 0.02 0.00 0.00 0.01
0.00 0.01 0.00 0.00 0.00 0.00 0.00 0.00 0.00 0.01 0.04 0.07 0.07 0.07 0.10 0.16 0.16 0.13 0.16 0.16 0.15 0.10 0.06 0.08 0.09 0.09 0.11 0.10 0.10 0.13 0.20 0.47 0.55 0.41 0.45 0.85 1.10 1.40 1.03 0.36 0.06 0.01 0.00 0.01
0.00 0.01 0.00 0.01 0.00 0.00 0.00 0.00 0.00 0.01 0.02 0.04 0.04 0.04 0.06 0.08 0.13 0.12 0.13 0.15 0.15 0.13 0.09 0.09 0.11 0.11 0.11 0.12 0.08 0.11 0.13 0.26 0.44 0.47 0.54 0.67 0.65 0.74 1.11 1.05 0.65 0.15 0.02 0.01
0.00 0.00 0.00 0.00 0.00 0.00 0.00 0.00 0.00 0.01 0.02 0.03 0.02 0.01 0.02 0.03 0.06 0.11 0.11 0.13 0.13 0.12 0.09 0.07 0.10 0.11 0.11 0.14 0.13 0.07 0.11 0.14 0.27 0.45 0.49 0.69 0.83 0.79 0.76 0.64 0.75 0.82 0.38 0.08
0.00 0.00 0.01 0.02 0.00 0.00 0.00 0.00 0.00 0.00 0.01 0.01 0.01 0.00 0.01 0.02 0.05 0.06 0.10 0.10 0.13 0.12 0.10 0.09 0.08 0.14 0.13 0.11 0.16 0.14 0.09 0.16 0.17 0.28 0.47 0.49 0.57 0.64 0.95 0.91 0.67 0.51 0.47 0.36
0.00 0.00 0.01 0.00 0.00 0.00 0.00 0.00 0.00 0.00 0.00 0.00 0.00 0.00 0.00 0.01 0.03 0.06 0.08 0.09 0.09 0.10 0.08 0.08 0.09 0.09 0.15 0.11 0.09 0.16 0.17 0.13 0.20 0.21 0.25 0.42 0.52 0.46 0.45 0.74 0.88 0.84 0.50 0.29
0.00 0.00 0.00 0.00 0.00 0.00 0.01 0.00 0.00 0.00 0.00 0.00 0.00 0.00 0.00 0.01 0.01 0.01 0.04 0.06 0.06 0.07 0.07 0.06 0.06 0.06 0.08 0.13 0.10 0.11 0.18 0.25 0.19 0.22 0.22 0.23 0.34 0.63 0.61 0.50 0.49 0.76 0.82 0.54
0.00 0.00 0.00 0.00 0.00 0.00 0.00 0.00 0.00 0.00 0.00 0.00 0.00 0.00 0.00 0.00 0.00 0.00 0.01 0.04 0.05 0.05 0.05 0.05 0.05 0.04 0.04 0.07 0.11 0.10 0.13 0.22 0.28 0.25 0.26 0.24 0.25 0.28 0.56 0.67 0.64 0.49 0.48 0.66
0.00 0.00 0.00 0.00 0.00 0.00 0.00 0.00 0.00 0.00 0.00 0.00 0.00 0.00 0.00 0.00 0.00 0.00 0.00 0.00 0.03 0.03 0.03 0.03 0.03 0.02 0.00 0.01 0.03 0.08 0.08 0.12 0.26 0.29 0.30 0.33 0.33 0.31 0.27 0.41 0.59 0.68 0.53 0.50
0.00 0.00 0.00 0.00 0.00 0.00 0.00 0.00 0.00 0.00 0.00 0.00 0.00 0.00 0.00 0.00 0.00 0.00 0.00 0.00 0.00 0.01 0.01 0.01 0.01 0.00 0.00 0.00 0.01 0.01 0.04 0.07 0.11 0.21 0.27 0.33 0.37 0.37 0.32 0.31 0.30 0.44 0.62 0.53
0.00 0.00 0.00 0.00 0.00 0.00 0.00 0.00 0.00 0.00 0.00 0.00 0.00 0.00 0.00 0.00 0.00 0.00 0.00 0.00 0.00 0.00 0.00 0.00 0.00 0.00 0.00 0.00 0.00 0.00 0.01 0.02 0.04 0.08 0.15 0.21 0.28 0.35 0.40 0.36 0.36 0.33 0.34 0.49
0.00 0.00 0.00 0.00 0.00 0.00 0.00 0.00 0.00 0.00 0.00 0.00 0.00 0.00 0.00 0.00 0.00 0.00 0.00 0.00 0.00 0.00 0.00 0.00 0.00 0.00 0.00 0.00 0.00 0.00 0.00 0.00 0.01 0.02 0.04 0.09 0.15 0.22 0.27 0.34 0.35 0.33 0.36 0.39
0.00 0.00 0.00 0.00 0.00 0.00 0.00 0.00 0.00 0.00 0.00 0.00 0.00 0.00 0.00 0.00 0.00 0.00 0.00 0.00 0.00 0.00 0.00 0.00 0.00 0.00 0.00 0.00 0.00 0.00 0.00 0.00 0.00 0.00 0.02 0.04 0.06 0.10 0.15 0.21 0.28 0.32 0.32 0.37
0.00 0.00 0.00 0.00 0.00 0.00 0.00 0.00 0.00 0.00 0.00 0.00 0.00 0.00 0.00 0.00 0.00 0.00 0.00 0.00 0.00 0.00 0.00 0.00 0.00 0.00 0.00 0.00 0.00 0.00 0.00 0.00 0.00 0.00 0.00 0.01 0.02 0.03 0.06 0.10 0.15 0.22 0.29 0.32
0.00 0.00 0.00 0.00 0.00 0.00 0.00 0.00 0.00 0.00 0.00 0.00 0.00 0.00 0.00 0.00 0.00 0.00 0.00 0.00 0.00 0.00 0.00 0.00 0.00 0.00 0.00 0.00 0.00 0.00 0.00 0.00 0.00 0.00 0.00 0.00 0.00 0.01 0.02 0.04 0.06 0.09 0.15 0.21
0.00 0.00 0.00 0.00 0.00 0.00 0.00 0.00 0.00 0.00 0.00 0.00 0.00 0.00 0.00 0.00 0.00 0.00 0.00 0.00 0.00 0.00 0.00 0.00 0.00 0.00 0.00 0.00 0.00 0.00 0.00 0.00 0.00 0.00 0.00 0.00 0.00 0.00 0.01 0.02 0.03 0.06 0.07 0.08
0.00 0.00 0.00 0.00 0.00 0.00 0.00 0.00 0.00 0.00 0.00 0.00 0.00 0.00 0.00 0.00 0.00 0.00 0.00 0.00 0.00 0.00 0.00 0.00 0.00 0.00 0.00 0.00 0.00 0.00 0.00 0.00 0.00 0.00 0.00 0.00 0.00 0.00 0.00 0.00 0.00 0.00 0.02 0.03